Weather History for Louisburg, NC

Change the Weather History Date:

Tuesday, September 4, 2012

  Actual Average (KRDU) Record (KRDU)
Temperature  
Mean Temperature 81 °F 76 °F  
Max Temperature 87 °F 86 °F 100 °F (1925)
Min Temperature 75 °F 66 °F 50 °F (1997)
Degree Days  
Heating Degree Days 0 0  
Month to date heating degree days 0  
Since 1 July heating degree days 1  
Cooling Degree Days 16 11  
Month to date cooling degree days 44  
Year to date cooling degree days 1485  
Growing Degree Days 31 (Base 50)    
Moisture  
Dew Point 71 °F    
Average Humidity 69    
Maximum Humidity 100    
Minimum Humidity 55    
Precipitation  
Precipitation 0.00 in 0.15 in 3.83 in (2006)
Month to date precipitation 0.63  
Year to date precipitation 30.17  
Sea Level Pressure  
Sea Level Pressure 30.00 in    
Wind  
Wind Speed 2 mph (South)    
Max Wind Speed 9 mph    
Max Gust Speed -    
Visibility 8 miles    
Events Fog    
T = Trace of Precipitation, MM = Missing Value Source: NWS Daily Summary

Daily Weather History Graph

Daily Weather History Graph

Search for Another Location

Airport:

Trip Planner

Search our weather history database for the weather conditions in past years. The results will help you decide how hot, cold, wet, or windy it might be!

Date:

Astronomy

Sep. 04, 2012 Rise Set
Actual Time 6:47 AM EDT 7:35 PM EDT
Civil Twilight 6:21 AM EDT 8:01 PM EDT
Nautical Twilight 5:50 AM EDT 8:32 PM EDT
Astronomical Twilight 5:19 AM EDT 9:04 PM EDT
Moon 9:38 PM EDT (9/4) 10:42 AM EDT (9/4)
Length of Visible Light 13h 40m
Length of Day
12h 48m
Waning Gibbous, 84% of the Moon is Illuminated
Sep 4
Waning Gibbous
Sep 8
Last Quarter
Sep 15
New
Sep 22
First Quarter
Sep 29
Full

Hourly Weather History & Observations

Time (EDT) Temp. Heat Index Dew Point Humidity Pressure Visibility Wind Dir Wind Speed Gust Speed Precip Events Conditions
12:15 AM - - - N/A% 30.04 in 7.0 mi Calm Calm - N/A   Scattered Clouds
12:35 AM - - - N/A% 30.04 in 7.0 mi Calm Calm - N/A   Scattered Clouds
12:55 AM - - - N/A% 30.04 in 7.0 mi Calm Calm - N/A   Clear
1:15 AM - - - N/A% 30.03 in 5.0 mi Calm Calm - N/A   Haze
1:35 AM - - - N/A% 30.03 in 7.0 mi Calm Calm - N/A   Clear
1:55 AM - - - N/A% 30.03 in 5.0 mi Calm Calm - N/A   Haze
2:15 AM - - - N/A% 30.03 in 4.0 mi Calm Calm - N/A   Haze
2:35 AM - - - N/A% 30.03 in 5.0 mi Calm Calm - N/A   Haze
2:55 AM - - - N/A% 30.03 in 2.5 mi Calm Calm - N/A   Clear
3:15 AM - - - N/A% 30.03 in 2.0 mi Calm Calm - N/A   Clear
3:35 AM - - - N/A% 30.03 in 2.0 mi Calm Calm - N/A   Mostly Cloudy
3:55 AM - - - N/A% 30.02 in 5.0 mi Calm Calm - N/A   Haze
4:15 AM - - - N/A% 30.01 in 5.0 mi Calm Calm - N/A   Haze
4:35 AM - - - N/A% 30.01 in 5.0 mi Calm Calm - N/A   Haze
4:55 AM - - - N/A% 30.01 in 0.5 mi South 3.5 mph - N/A Fog Fog
5:15 AM - - - N/A% 30.01 in 0.2 mi South 3.5 mph - N/A Fog Fog
5:55 AM - - - N/A% 30.03 in 2.0 mi South 4.6 mph - N/A   Overcast
6:15 AM - - - N/A% 30.03 in 3.0 mi SSW 3.5 mph - N/A   Overcast
6:35 AM - - - N/A% 30.03 in 4.0 mi South 4.6 mph - N/A   Haze
6:55 AM - - - N/A% 30.04 in 4.0 mi Calm Calm - N/A   Haze
7:15 AM - - - N/A% 30.04 in 3.0 mi Calm Calm - N/A   Scattered Clouds
7:35 AM - - - N/A% 30.05 in 4.0 mi SSW 4.6 mph - N/A   Haze
7:55 AM - - - N/A% 30.05 in 4.0 mi SSW 4.6 mph - N/A   Haze
8:15 AM - - - N/A% 30.05 in 4.0 mi SSW 4.6 mph - N/A   Haze
8:35 AM - - - N/A% 30.05 in 5.0 mi SSW 4.6 mph - N/A   Haze
8:55 AM - - - N/A% 30.05 in 5.0 mi SSW 5.8 mph - N/A   Haze
9:15 AM - - - N/A% 30.05 in 7.0 mi SSW 6.9 mph - N/A   Mostly Cloudy
9:35 AM - - - N/A% 30.05 in 10.0 mi SW 3.5 mph - N/A   Scattered Clouds
9:55 AM - - - N/A% 30.06 in 10.0 mi Calm Calm - N/A   Mostly Cloudy
10:15 AM 77.0 °F - 73.4 °F 89% 30.06 in 10.0 mi SSW 5.8 mph - N/A   Scattered Clouds
10:35 AM 78.8 °F - 71.6 °F 78% 30.05 in 10.0 mi South 6.9 mph - N/A   Scattered Clouds
10:55 AM 78.8 °F - 69.8 °F 74% 30.05 in 10.0 mi South 6.9 mph - N/A   Scattered Clouds
11:15 AM 80.6 °F 83.9 °F 69.8 °F 70% 30.05 in 10.0 mi SW 4.6 mph - N/A   Clear
11:35 AM 80.6 °F 83.2 °F 68.0 °F 65% 30.04 in 10.0 mi South 9.2 mph - N/A   Clear
11:55 AM 82.4 °F 86.3 °F 69.8 °F 66% 30.04 in 10.0 mi Calm Calm - N/A   Clear
12:15 PM 82.4 °F 85.4 °F 68.0 °F 62% 30.04 in 10.0 mi South 5.8 mph - N/A   Scattered Clouds
12:35 PM 82.4 °F 86.3 °F 69.8 °F 66% 30.04 in 10.0 mi South 8.1 mph - N/A   Scattered Clouds
12:55 PM 82.4 °F 86.3 °F 69.8 °F 66% 30.03 in 10.0 mi South 6.9 mph - N/A   Scattered Clouds
1:15 PM 84.2 °F 88.4 °F 69.8 °F 62% 30.02 in 10.0 mi SSW 6.9 mph - N/A   Scattered Clouds
1:35 PM 84.2 °F 88.4 °F 69.8 °F 62% 30.02 in 10.0 mi South 9.2 mph - N/A   Scattered Clouds
1:55 PM 84.2 °F 88.4 °F 69.8 °F 62% 30.01 in 10.0 mi South 6.9 mph - N/A   Scattered Clouds
2:15 PM 84.2 °F 89.6 °F 71.6 °F 66% 30.00 in 10.0 mi SSE 4.6 mph - N/A   Scattered Clouds
2:35 PM 86.0 °F 90.4 °F 69.8 °F 58% 29.99 in 10.0 mi SSE 8.1 mph - N/A   Scattered Clouds
2:55 PM 86.0 °F 90.4 °F 69.8 °F 58% 29.98 in 10.0 mi SSE 5.8 mph - N/A   Scattered Clouds
3:15 PM 86.0 °F 90.4 °F 69.8 °F 58% 29.97 in 10.0 mi South 6.9 mph - N/A   Scattered Clouds
3:35 PM 86.0 °F 90.4 °F 69.8 °F 58% 29.97 in 10.0 mi South 5.8 mph - N/A   Clear
3:55 PM 86.0 °F 90.4 °F 69.8 °F 58% 29.96 in 10.0 mi South 4.6 mph - N/A   Clear
4:15 PM 86.0 °F 90.4 °F 69.8 °F 58% 29.96 in 10.0 mi Calm Calm - N/A   Scattered Clouds
4:35 PM 86.0 °F 90.4 °F 69.8 °F 58% 29.95 in 10.0 mi South 5.8 mph - N/A   Scattered Clouds
4:55 PM 87.8 °F 92.6 °F 69.8 °F 55% 29.95 in 10.0 mi South 4.6 mph - N/A   Scattered Clouds
5:15 PM 86.0 °F 90.4 °F 69.8 °F 58% 29.95 in 10.0 mi SSE 6.9 mph - N/A   Scattered Clouds
5:35 PM 86.0 °F 91.8 °F 71.6 °F 62% 29.95 in 10.0 mi Calm Calm - N/A   Mostly Cloudy
5:55 PM 86.0 °F 91.8 °F 71.6 °F 62% 29.95 in 10.0 mi Calm Calm - N/A   Scattered Clouds
6:15 PM 84.2 °F 89.6 °F 71.6 °F 66% 29.95 in 10.0 mi Calm Calm - N/A   Scattered Clouds
6:35 PM 82.4 °F 87.2 °F 71.6 °F 70% 29.95 in 10.0 mi Calm Calm - N/A   Scattered Clouds
6:55 PM 82.4 °F 88.2 °F 73.4 °F 74% 29.94 in 10.0 mi Calm Calm - N/A   Clear
7:15 PM 80.6 °F 85.4 °F 73.4 °F 79% 29.95 in 10.0 mi Calm Calm - N/A   Clear
7:35 PM 78.8 °F - 78.8 °F 100% 29.95 in 10.0 mi Calm Calm - N/A   Scattered Clouds
7:55 PM 78.8 °F - 78.8 °F 100% 29.95 in 10.0 mi Calm Calm - N/A   Scattered Clouds
8:15 PM 78.8 °F - 77.0 °F 94% 29.95 in 10.0 mi Calm Calm - N/A   Scattered Clouds
8:35 PM - - - N/A% 29.95 in 10.0 mi Calm Calm - N/A   Scattered Clouds
8:55 PM - - - N/A% 29.96 in 10.0 mi Calm Calm - N/A   Clear
9:15 PM - - - N/A% 29.96 in 10.0 mi Calm Calm - N/A   Clear
9:35 PM - - - N/A% 29.97 in 10.0 mi Calm Calm - N/A   Clear
9:55 PM - - - N/A% 29.97 in 10.0 mi Calm Calm - N/A   Clear
10:15 PM - - - N/A% 29.97 in 10.0 mi South 3.5 mph - N/A   Clear
10:35 PM - - - N/A% 29.97 in 10.0 mi South 4.6 mph - N/A   Clear
10:55 PM - - - N/A% 29.97 in 10.0 mi South 3.5 mph - N/A   Clear
11:15 PM - - - N/A% 29.97 in 10.0 mi SSW 4.6 mph - N/A   Clear
11:35 PM 75.2 °F - 71.6 °F 89% 29.97 in 10.0 mi South 6.9 mph - N/A   Clear
11:55 PM 75.2 °F - 71.6 °F 89% 29.97 in 10.0 mi South 6.9 mph - N/A   Clear